Weather History for Houma, LA

Change the Weather History Date:

Sunday, October 28, 2012

  Actual Average Record
Temperature  
Mean Temperature 53 °F -  
Max Temperature 64 °F 75 °F 88 °F (1946)
Min Temperature 42 °F 55 °F 34 °F (1957)
Degree Days  
Heating Degree Days 12    
Growing Degree Days 3 (Base 50)    
Moisture  
Dew Point 40 °F    
Average Humidity 72    
Maximum Humidity 92    
Minimum Humidity 37    
Precipitation  
Precipitation 0.00 in - - ()
Sea Level Pressure  
Sea Level Pressure 30.09 in    
Wind  
Wind Speed 9 mph (NNW)    
Max Wind Speed 23 mph    
Max Gust Speed -    
Visibility 9 miles    
Events      
Averages and records for this station are not official NWS values.
T = Trace of Precipitation, MM = Missing Value Source: NWS Daily Summary

Daily Weather History Graph

Daily Weather History Graph

Search for Another Location

Airport:

Trip Planner

Search our weather history database for the weather conditions in past years. The results will help you decide how hot, cold, wet, or windy it might be!

Date:

Astronomy

Oct. 28, 2012 Rise Set
Actual Time 7:13 AM CDT 6:18 PM CDT
Civil Twilight 6:48 AM CDT 6:43 PM CDT
Nautical Twilight 6:20 AM CDT 7:11 PM CDT
Astronomical Twilight 5:53 AM CDT 7:39 PM CDT
Moon 5:36 PM CDT (10/28) 6:08 AM CDT (10/28)
Length of Visible Light 11h 54m
Length of Day
11h 05m
Waxing Gibbous, 99% of the Moon is Illuminated
Oct 28
Waxing Gibbous
Oct 29
Full
Nov 6
Last Quarter
Nov 13
New
Nov 20
First Quarter

Hourly Weather History & Observations

Time (CDT) Temp. Windchill Dew Point Humidity Pressure Visibility Wind Dir Wind Speed Gust Speed Precip Events Conditions
12:15 AM 49.1 °F - 43.7 °F 82% 30.07 in 10.0 mi North 6.9 mph - N/A   Clear
12:35 AM 47.8 °F - 43.2 °F 84% 30.07 in 7.0 mi NNW 4.6 mph - N/A   Clear
12:55 AM 46.8 °F - 43.0 °F 87% 30.06 in 10.0 mi NNW 5.8 mph - N/A   Clear
1:35 AM 46.4 °F 43.5 °F 42.8 °F 87% 30.06 in 10.0 mi North 5.8 mph - N/A   Clear
1:55 AM 46.2 °F 42.7 °F 42.3 °F 86% 30.05 in 10.0 mi NNW 6.9 mph - N/A   Clear
2:15 AM 45.5 °F 42.5 °F 42.3 °F 88% 30.05 in 10.0 mi NNW 5.8 mph - N/A   Clear
2:55 AM 45.7 °F 42.0 °F 41.9 °F 87% 30.05 in 10.0 mi North 6.9 mph - N/A   Clear
3:15 AM 45.3 °F 40.6 °F 41.7 °F 87% 30.05 in 10.0 mi North 9.2 mph - N/A   Clear
3:35 AM 44.8 °F 40.4 °F 41.2 °F 87% 30.05 in 10.0 mi NNW 8.1 mph - N/A   Clear
3:55 AM 44.6 °F 40.2 °F 41.0 °F 87% 30.05 in 10.0 mi NNW 8.1 mph - N/A   Clear
4:15 AM 43.9 °F 39.3 °F 40.8 °F 89% 30.05 in 10.0 mi NNW 8.1 mph - N/A   Clear
4:35 AM 43.7 °F 39.1 °F 40.6 °F 89% 30.06 in 10.0 mi NNW 8.1 mph - N/A   Clear
4:55 AM 43.3 °F 38.6 °F 40.5 °F 90% 30.06 in 10.0 mi NNW 8.1 mph - N/A   Clear
5:15 AM 43.2 °F 38.4 °F 40.5 °F 90% 30.07 in 10.0 mi NNW 8.1 mph - N/A   Clear
5:35 AM 42.8 °F 38.6 °F 40.1 °F 90% 30.07 in 10.0 mi NNW 6.9 mph - N/A   Clear
5:50 AM 42.8 °F 37.5 °F 39.2 °F 87% 30.08 in 7.0 mi North 9.2 mph - N/A   Clear
5:55 AM 42.3 °F 37.9 °F 40.1 °F 92% 30.07 in 10.0 mi NNW 6.9 mph - N/A   Clear
6:50 AM 42.8 °F 38.6 °F 39.2 °F 87% 30.09 in 7.0 mi NNW 6.9 mph - N/A   Clear
7:50 AM 42.8 °F 38.6 °F 39.2 °F 87% 30.11 in 7.0 mi NNW 6.9 mph - N/A   Clear
8:50 AM 46.4 °F 41.9 °F 41.0 °F 81% 30.13 in 7.0 mi NNW 9.2 mph - N/A   Clear
9:50 AM 53.6 °F - 42.8 °F 67% 30.13 in 7.0 mi North 17.3 mph - N/A   Clear
10:50 AM 57.2 °F - 39.2 °F 51% 30.11 in 7.0 mi NNW 17.3 mph - N/A   Clear
11:51 AM 59.0 °F - 37.4 °F 45% 30.10 in 7.0 mi NNW 17.3 mph - N/A   Clear
12:51 PM 62.6 °F - 37.4 °F 39% 30.09 in 7.0 mi North 19.6 mph - N/A   Clear
1:48 PM 64.4 °F - 37.4 °F 37% 30.05 in 7.0 mi NW 16.1 mph - N/A   Clear
2:55 PM 64.4 °F - 37.4 °F 37% 30.03 in 7.0 mi NNW 23.0 mph - N/A   Clear
3:55 PM 64.4 °F - 37.4 °F 37% 30.03 in 7.0 mi NNW 23.0 mph - N/A   Clear
4:51 PM 64.4 °F - 37.4 °F 37% 30.04 in 7.0 mi NW 16.1 mph - N/A   Clear
5:54 PM 62.6 °F - 37.4 °F 39% 30.07 in 7.0 mi NNW 15.0 mph - N/A   Clear
6:48 PM 57.2 °F - 39.2 °F 51% 30.08 in 7.0 mi NNW 12.7 mph - N/A   Clear
7:15 PM 54.9 °F - 38.8 °F 55% 30.08 in 10.0 mi NW 6.9 mph - N/A   Clear
7:35 PM 52.9 °F - 39.2 °F 60% 30.09 in 10.0 mi NW 5.8 mph - N/A   Clear
7:55 PM 50.7 °F - 39.2 °F 65% 30.10 in 10.0 mi NW 5.8 mph - N/A   Clear
8:15 PM 49.3 °F - 39.4 °F 69% 30.10 in 10.0 mi NW 6.9 mph - N/A   Clear
8:55 PM 50.9 °F - 40.1 °F 67% 30.12 in 10.0 mi NW 6.9 mph - N/A   Clear
9:55 PM 49.3 °F - 40.1 °F 71% 30.14 in 10.0 mi NW 5.8 mph - N/A   Clear
10:15 PM 46.9 °F - 40.1 °F 77% 30.15 in 10.0 mi NW 5.8 mph - N/A   Clear
10:35 PM 46.9 °F - 40.1 °F 77% 30.15 in 10.0 mi NW 5.8 mph - N/A   Clear
10:55 PM 45.3 °F 42.3 °F 40.1 °F 82% 30.15 in 10.0 mi NW 5.8 mph - N/A   Clear
11:15 PM 46.0 °F 42.5 °F 40.3 °F 80% 30.15 in 10.0 mi NNW 6.9 mph - N/A   Clear
11:35 PM 47.8 °F - 40.3 °F 75% 30.15 in 10.0 mi NNW 8.1 mph - N/A   Clear
11:55 PM 48.2 °F - 40.1 °F 74% 30.15 in 10.0 mi NNW 10.4 mph - N/A   Clear